Location: Nowy Sacz
(49.6330°N, 20.7170°E)
Time: 02:54:14
(UTC+01:00)

Envisat - Visible Passes

Search period start: 10 December 2022 00:00
Search period end: 20 December 2022 00:00
Orbit: 763 x 765 km, 98.2° (Epoch: 09 December)

Date Brightness Start Highest point End Pass type
(mag) Time Alt. Az. Time Alt. Az. Time Alt. Az.
10 Dec 4.8 04:19:04 10° N 04:20:43 21° N 04:20:43 21° N visible
10 Dec 4.9 06:00:00 10° NNW 06:00:53 12° NW 06:00:53 12° NW visible
11 Dec 5.3 03:42:05 10° NNE 03:43:10 16° NNE 03:43:10 16° NNE visible
11 Dec 4.7 05:21:47 10° N 05:23:20 17° NNW 05:23:20 17° NNW visible
11 Dec 6.4 16:45:20 10° W 16:45:51 10° W 16:46:23 10° WNW visible
12 Dec 5.8 03:05:28 10° NNE 03:05:37 11° NE 03:05:37 11° NE visible
12 Dec 4.7 04:44:16 10° N 04:45:48 19° N 04:45:48 19° N visible
12 Dec 5.7 16:04:29 10° SW 16:08:20 21° W 16:12:13 10° NW visible
13 Dec 5.0 04:07:04 10° NNE 04:08:16 18° NNE 04:08:16 18° NNE visible
13 Dec 4.9 05:47:30 10° NNW 05:48:26 13° NNW 05:48:26 13° NNW visible
14 Dec 5.5 03:30:11 10° NNE 03:30:44 13° NNE 03:30:44 13° NNE visible
14 Dec 4.8 05:09:36 10° N 05:10:55 16° NNW 05:10:55 16° NNW visible
14 Dec 5.9 16:31:21 10° WSW 16:33:42 13° W 16:36:04 10° WNW visible
15 Dec 4.9 04:32:12 10° N 04:33:24 17° N 04:33:24 17° N visible
16 Dec 5.3 03:55:06 10° NNE 03:55:53 15° NNE 03:55:53 15° NNE visible
16 Dec 4.9 05:35:10 10° NNW 05:36:03 13° NNW 05:36:03 13° NNW visible
17 Dec 5.8 03:18:19 10° NNE 03:18:22 10° NNE 03:18:22 10° NNE visible
17 Dec 4.9 04:57:28 10° N 04:58:33 16° N 04:58:33 16° N visible
17 Dec 5.8 16:18:22 10° SW 16:21:34 17° W 16:24:46 10° NW visible
18 Dec 5.1 04:20:10 10° N 04:21:02 15° N 04:21:02 15° N visible
18 Dec 5.0 06:01:12 10° NNW 06:01:14 10° NNW 06:01:14 10° NNW visible
19 Dec 5.5 03:43:09 10° NNE 03:43:33 12° NNE 03:43:33 12° NNE visible
19 Dec 5.0 05:22:55 10° N 05:23:43 13° NNW 05:23:43 13° NNW visible
